[[{"header":{"parameterUnit":"m.s-1","parameterCategory":1,"la1":30.2991,"la2":30.254,"lo1":-89.0895,"lo2":-89.0444,"dy":0.0017,"dx":0.0017,"nx":28,"ny":28,"refTime":"2024-07-24T09:00:00:Z","depth":0,"parameterNumber":2,"parameterNumberName":"U-component_of_WINDS"},"data":[0,0,0,0,0,0,0,0,0,0,0,0,0,0,0,0,0,0,0,0,0,0,0,0,0,0,0,0,0,0,0,0,0,0,0,0,0,0,0,0,0,0,0,0,0,0,0,0,0,0,0,0,0,0,0,0,0,0,-2.8657,-2.8656,0,-2.8574,-2.8573,-2.8572,-2.8414,-2.8411,-2.8408,-2.8405,-2.8324,-2.8325,-2.8326,0,0,0,0,0,0,0,0,0,0,0,0,0,-2.8683,-2.8683,-2.8657,-2.8656,-2.8655,-2.8574,-2.8573,-2.8572,-2.8414,-2.8411,-2.8407,-2.8403,-2.8324,-2.8325,-2.8326,0,0,0,0,0,0,0,0,0,0,0,0,0,-2.8643,-2.8683,-2.8657,-2.8567,-2.8558,-2.8574,-2.8573,-2.8571,-2.8415,-2.841,-2.8406,-2.8401,-2.8324,-2.8325,-2.8326,-2.8426,0,0,-2.8329,-2.833,0,0,0,0,0,0,0,0,-2.8646,-2.8642,-2.8581,-2.8573,-2.8563,-2.8499,-2.8552,-2.8523,-2.8416,-2.8469,-2.8405,-2.8399,-2.8387,-2.8382,-2.8377,-2.8422,-2.8418,-2.8329,-2.833,-2.8331,-2.8331,0,0,0,0,0,0,0,-2.8649,-2.8645,-2.8624,-2.858,-2.8569,-2.8531,-2.852,-2.8546,-2.8455,-2.8464,-2.8453,-2.8445,-2.8381,-2.8376,-2.8374,-2.8417,-2.8329,-2.833,-2.8331,-2.8331,-2.8538,-2.8543,0,0,0,0,0,0,-2.8664,-2.8648,-2.8627,-2.8622,-2.8593,-2.8534,-2.8522,-2.8525,-2.8454,-2.8439,-2.8449,-2.8438,-2.8377,-2.8373,-2.8371,-2.8481,-2.8331,-2.8332,-2.8332,-2.8534,-2.854,-2.8545,0,0,0,0,0,0,-2.8665,-2.8664,-2.863,-2.8632,-2.8625,-2.8539,-2.8543,-2.8525,-2.852,-2.8442,-2.8426,-2.8461,-2.8373,-2.8369,-2.8412,-2.8477,-2.8332,-2.8333,-2.8528,-2.8535,-2.8542,-2.8706,0,0,0,0,0,0,-2.8667,-2.8665,-2.8701,-2.8634,-2.8625,-2.8673,-2.8547,-2.8527,-2.8522,-2.8507,-2.8449,-2.8435,-2.8369,-2.8412,-2.8414,-2.8476,-2.8334,-2.8522,-2.8531,-2.854,-2.8694,-2.8718,-2.8738,0,0,0,0,0,-2.8668,-2.8752,-2.8704,-2.8702,-2.8669,-2.8677,-2.8672,-2.8593,-2.8528,-2.8564,-2.8514,-2.8437,-2.8469,-2.8417,-2.8418,-2.8482,-2.8517,-2.8529,-2.8539,-2.8685,-2.8713,-2.8737,0,0,0,0,0,0,-2.8832,-2.8742,-2.8687,-2.8752,-2.8723,-2.865,-2.8694,-2.8626,-2.8616,-2.8603,-2.8505,-2.8494,-2.855,-2.852,-2.8464,-2.8574,-2.8481,-2.8493,-2.8592,-2.8618,-2.8639,-2.8646,-2.8335,0,0,0,0,0,-2.8875,-2.8888,-2.8809,-2.8874,-2.8862,-2.8781,-2.8782,-2.8722,-2.869,-2.8677,-2.863,-2.8602,-2.8605,-2.861,-2.8609,-2.8689,-2.8674,-2.8733,-2.8755,-2.8773,-2.8784,-2.8824,-2.8849,-2.858,-2.858,-2.858,0,0,-2.8965,-2.8917,-2.8932,-2.8905,-2.8876,-2.8893,-2.8772,-2.8795,-2.8806,-2.8681,-2.8718,-2.8683,-2.8646,-2.8708,-2.8733,-2.8684,-2.8855,-2.8787,-2.8802,-2.8803,-2.8837,-2.8863,-2.8886,-2.8588,-2.8586,-2.8585,0,0,-2.9138,-2.9103,-2.9152,-2.9125,-2.9081,-2.9026,-2.9039,-2.8976,-2.8947,-2.8983,-2.8888,-2.8901,-2.891,-2.8886,-2.8876,-2.9038,-2.8967,-2.9041,-2.9155,-2.9194,-2.9215,-2.9234,-2.9291,-2.9313,-2.9052,-2.9053,-2.9053,0,-2.9256,-2.9275,-2.9187,-2.9215,-2.9206,-2.9091,-2.9141,-2.9119,-2.9079,-2.9076,-2.9021,-2.9028,-2.8995,-2.9049,-2.9089,-2.9084,-2.9095,-2.9047,-2.9219,-2.9237,-2.9252,-2.9306,-2.9328,-2.9062,-2.9061,-2.906,-2.9059,0,-2.9422,-2.9438,-2.9483,-2.9444,-2.944,-2.948,-2.9398,-2.9405,-2.9346,-2.9297,-2.9335,-2.929,-2.9278,-2.9286,-2.923,-2.9333,-2.9304,-2.9236,-2.9141,-2.9289,-2.9337,-2.9357,-2.9075,-2.9072,-2.9069,-2.9067,0,0,-2.9697,-2.9607,-2.9625,-2.9606,-2.9549,-2.9559,-2.9593,-2.9579,-2.9587,-2.9563,-2.9589,-2.9598,-2.9534,-2.9522,-2.9462,-2.9497,-2.9627,-2.9424,-2.9421,-2.9463,-2.9737,-2.9789,-2.9814,-2.9579,-2.9583,-2.9586,-2.974,0,-2.9857,-2.9908,-2.9828,-2.9898,-2.9911,-2.9802,-2.9831,-2.98,-2.9755,-2.976,-2.9711,-2.9719,-2.9634,-2.9626,-2.9655,-2.9605,-2.9681,-2.9593,-2.9604,-2.9605,-2.9616,-2.9839,-2.9894,-3.0042,-2.9759,-2.9762,-2.9764,0,-3.005,-3.0033,-3.0104,-3.0041,-3.0044,-3.0072,-3.0051,-3.0058,-3.002,-2.9985,-2.9971,-2.9899,-2.9928,-2.9836,-2.9876,-2.9818,-2.9817,-2.9793,-2.9797,-2.9795,-2.9694,-2.9844,-3.0087,-3.011,-2.9794,-2.9791,-2.9789,0,-3.0243,-3.0238,-3.0279,-3.0266,-3.0194,-3.0216,-3.0187,-3.0144,-3.0141,-3.0124,-3.012,-3.0108,-3.0102,-3.0094,-3.0021,-2.996,-3.0069,-2.9971,-3.0041,-3.0044,-3.007,-3.0069,-3.0317,-3.007,-3.007,-3.0069,-3.0069,0,-3.043,-3.0477,-3.0364,-3.039,-3.044,-3.0348,-3.04,-3.0361,-3.0324,-3.034,-3.0245,-3.0263,-3.0165,-3.0172,-3.0115,-3.0157,-3.0155,-3.0127,-3.0112,-3.0136,-3.0139,-3.0134,-3.0122,-3.0075,-3.0074,-3.0073,-3.0072,0,-3.0653,-3.0579,-3.0617,-3.0545,-3.0528,-3.0568,-3.0507,-3.0528,-3.0476,-3.0498,-3.0498,-3.0418,-3.0421,-3.0347,-3.0337,-3.0298,-3.0365,-3.0331,-3.0377,-3.0366,-3.0441,-3.0435,-3.0694,-3.0723,-3.0459,-3.0461,-3.0464,0,-3.0778,-3.0811,-3.0742,-3.0745,-3.0721,-3.0728,-3.0722,-3.0634,-3.0632,-3.0591,-3.0618,-3.0613,-3.0604,-3.0615,-3.0557,-3.0548,-3.0513,-3.0605,-3.0512,-3.0534,-3.0514,-3.0513,-3.0516,-3.0625,-3.0628,-3.0631,-3.0633,0,-3.1006,-3.0967,-3.0962,-3.0945,-3.0941,-3.0924,-3.0901,-3.0909,-3.0812,-3.0816,-3.0817,-3.081,-3.0798,-3.0795,-3.0775,-3.0746,-3.0674,-3.0662,-3.0678,-3.0703,-3.0729,-3.0715,-3.043,-3.0657,-3.0655,-3.0653,-3.0652,-3.0651,-3.1183,-3.1207,-3.1162,-3.116,-3.1132,-3.1112,-3.1128,-3.1077,-3.1076,-3.1058,-3.1006,-3.1017,-3.0977,-3.0942,-3.092,-3.0927,-3.0882,-3.0905,-3.0911,-3.0918,-3.0932,-3.0727,-3.0923,-3.0923,-3.0922,-3.0921,-3.0921,0,-3.1406,-3.137,-3.1369,-3.1338,-3.1337,-3.1267,-3.1237,-3.1241,-3.1251,-3.1219,-3.1212,-3.1214,-3.121,-3.115,-3.1139,-3.1157,-3.1123,-3.1157,-3.1155,-3.1149,-3.0973,-3.096,-3.1184,-3.1184,-3.1184,-3.1184,-3.1184,-3.1184,-3.1521,-3.1558,-3.1514,-3.1537,-3.1501,-3.1509,-3.1498,-3.1479,-3.1453,-3.1459,-3.1454,-3.1415,-3.1372,-3.1357,-3.135,-3.1333,-3.1333,-3.1378,-3.135,-3.1187,-3.1162,-3.1137,-3.1125,-3.1379,-3.1379,-3.1525,-3.1526,-3.1528]},{"header":{"parameterUnit":"m.s-1","parameterCategory":1,"la1":30.2991,"la2":30.254,"lo1":-89.0895,"lo2":-89.0444,"dy":0.0017,"dx":0.0017,"nx":28,"ny":28,"refTime":"2024-07-24T09:00:00:Z","depth":0,"parameterNumber":3,"parameterNumberName":"V-component_of_WINDS"},"data":[0,0,0,0,0,0,0,0,0,0,0,0,0,0,0,0,0,0,0,0,0,0,0,0,0,0,0,0,0,0,0,0,0,0,0,0,0,0,0,0,0,0,0,0,0,0,0,0,0,0,0,0,0,0,0,0,0,0,-1.6901,-1.6901,0,-1.6932,-1.6932,-1.6933,-1.6941,-1.6941,-1.694,-1.694,-1.697,-1.6971,-1.6972,0,0,0,0,0,0,0,0,0,0,0,0,0,-1.6844,-1.6845,-1.6901,-1.6901,-1.6902,-1.6932,-1.6932,-1.6933,-1.6941,-1.6941,-1.694,-1.694,-1.6969,-1.697,-1.6972,0,0,0,0,0,0,0,0,0,0,0,0,0,-1.6871,-1.6846,-1.6901,-1.6909,-1.691,-1.6932,-1.6932,-1.6933,-1.6941,-1.6941,-1.694,-1.694,-1.6969,-1.697,-1.6972,-1.6986,0,0,-1.6976,-1.6977,0,0,0,0,0,0,0,0,-1.687,-1.6873,-1.6908,-1.6909,-1.691,-1.6932,-1.6923,-1.6951,-1.6941,-1.6929,-1.694,-1.694,-1.6957,-1.696,-1.6966,-1.6987,-1.6989,-1.6976,-1.6977,-1.6978,-1.6978,0,0,0,0,0,0,0,-1.6868,-1.6872,-1.6913,-1.6908,-1.691,-1.691,-1.6914,-1.6928,-1.6944,-1.693,-1.6931,-1.6935,-1.6958,-1.6965,-1.6967,-1.6989,-1.6976,-1.6977,-1.6978,-1.6979,-1.7022,-1.7022,0,0,0,0,0,0,-1.6865,-1.6871,-1.6912,-1.6914,-1.6889,-1.6912,-1.6916,-1.6925,-1.6944,-1.6947,-1.6935,-1.6935,-1.6962,-1.6965,-1.6968,-1.6985,-1.6978,-1.6979,-1.698,-1.7021,-1.7022,-1.7022,0,0,0,0,0,0,-1.6864,-1.6869,-1.6911,-1.6892,-1.6898,-1.6913,-1.6924,-1.6926,-1.6933,-1.6948,-1.695,-1.6939,-1.6962,-1.6966,-1.6981,-1.6986,-1.698,-1.6981,-1.7021,-1.7021,-1.7022,-1.7019,0,0,0,0,0,0,-1.6862,-1.6868,-1.6875,-1.6893,-1.6899,-1.6925,-1.6924,-1.6927,-1.6936,-1.6936,-1.6952,-1.6955,-1.6962,-1.6979,-1.6983,-1.6988,-1.6982,-1.7021,-1.7021,-1.7022,-1.7019,-1.7019,-1.702,0,0,0,0,0,-1.686,-1.6873,-1.6875,-1.688,-1.6908,-1.6925,-1.6929,-1.6938,-1.6936,-1.6942,-1.6951,-1.6954,-1.6985,-1.6981,-1.6985,-1.699,-1.702,-1.7021,-1.7022,-1.7019,-1.7019,-1.702,0,0,0,0,0,0,-1.6855,-1.6875,-1.6878,-1.6897,-1.691,-1.6927,-1.6935,-1.6938,-1.6951,-1.695,-1.696,-1.6964,-1.6978,-1.6986,-1.6981,-1.7004,-1.7002,-1.7004,-1.6999,-1.6999,-1.7,-1.6998,-1.6983,0,0,0,0,0,-1.6856,-1.687,-1.6886,-1.6901,-1.6907,-1.692,-1.6928,-1.6934,-1.6946,-1.6951,-1.6962,-1.6973,-1.6985,-1.6992,-1.7004,-1.702,-1.7022,-1.7025,-1.7026,-1.7026,-1.7027,-1.7034,-1.7035,-1.7024,-1.7024,-1.7024,0,0,-1.6859,-1.6871,-1.6879,-1.6901,-1.6911,-1.6923,-1.6924,-1.6938,-1.6947,-1.6953,-1.6968,-1.6976,-1.6989,-1.7004,-1.7011,-1.7011,-1.7031,-1.7027,-1.7027,-1.7028,-1.7035,-1.7036,-1.7037,-1.7024,-1.7024,-1.7024,0,0,-1.6869,-1.6881,-1.6894,-1.6904,-1.6919,-1.6927,-1.693,-1.6946,-1.6952,-1.6967,-1.6972,-1.6982,-1.7002,-1.7011,-1.7018,-1.703,-1.7032,-1.7033,-1.7036,-1.7042,-1.7043,-1.7044,-1.7047,-1.7048,-1.7034,-1.7034,-1.7034,0,-1.687,-1.689,-1.69,-1.6913,-1.6921,-1.6928,-1.694,-1.6949,-1.6967,-1.6972,-1.6971,-1.6996,-1.7006,-1.7022,-1.7025,-1.7031,-1.7033,-1.7031,-1.7042,-1.7043,-1.7044,-1.7047,-1.7048,-1.7034,-1.7034,-1.7034,-1.7034,0,-1.6889,-1.6903,-1.6912,-1.6929,-1.6938,-1.6951,-1.6961,-1.6969,-1.6974,-1.6981,-1.6995,-1.7007,-1.702,-1.7024,-1.7029,-1.7041,-1.704,-1.7041,-1.7039,-1.7045,-1.7048,-1.7049,-1.7034,-1.7034,-1.7034,-1.7034,0,0,-1.6899,-1.6921,-1.6923,-1.6931,-1.6947,-1.6957,-1.6969,-1.6983,-1.6989,-1.7,-1.7009,-1.7026,-1.7026,-1.7034,-1.704,-1.7045,-1.7052,-1.7045,-1.7046,-1.7046,-1.7064,-1.7063,-1.7065,-1.7054,-1.7054,-1.7054,-1.7063,0,-1.6911,-1.6933,-1.6942,-1.696,-1.6971,-1.6977,-1.6986,-1.6997,-1.7004,-1.7013,-1.702,-1.7032,-1.7032,-1.7037,-1.7043,-1.705,-1.7056,-1.705,-1.7061,-1.7062,-1.7058,-1.7066,-1.7066,-1.7073,-1.7064,-1.7064,-1.7065,0,-1.6928,-1.694,-1.6959,-1.6973,-1.6978,-1.6987,-1.6999,-1.7009,-1.702,-1.7024,-1.7032,-1.7037,-1.7048,-1.7045,-1.706,-1.7055,-1.706,-1.7064,-1.7065,-1.7066,-1.7063,-1.7067,-1.7076,-1.7077,-1.7067,-1.7067,-1.7066,0,-1.6931,-1.6952,-1.6966,-1.6972,-1.6989,-1.6994,-1.7001,-1.7012,-1.7019,-1.7029,-1.7034,-1.7045,-1.7051,-1.7059,-1.7065,-1.7063,-1.7079,-1.7077,-1.7081,-1.7081,-1.7084,-1.7084,-1.7094,-1.7088,-1.7088,-1.7088,-1.7088,0,-1.6944,-1.6955,-1.6968,-1.6976,-1.6988,-1.6996,-1.7008,-1.7015,-1.7024,-1.7033,-1.7038,-1.7046,-1.7054,-1.7063,-1.7068,-1.7078,-1.7081,-1.7084,-1.7085,-1.7083,-1.7083,-1.7087,-1.7086,-1.7089,-1.7089,-1.7089,-1.7088,0,-1.695,-1.6959,-1.6974,-1.6988,-1.6991,-1.6999,-1.7011,-1.7018,-1.7025,-1.7036,-1.7039,-1.7049,-1.7059,-1.7066,-1.7079,-1.7083,-1.7093,-1.7095,-1.709,-1.709,-1.7094,-1.7093,-1.7106,-1.7108,-1.7102,-1.7102,-1.7102,0,-1.6957,-1.6965,-1.698,-1.6986,-1.6993,-1.7004,-1.7011,-1.7019,-1.7026,-1.7038,-1.7044,-1.7054,-1.7063,-1.7079,-1.7087,-1.7096,-1.7097,-1.7101,-1.7099,-1.7096,-1.7097,-1.7096,-1.7096,-1.7101,-1.7102,-1.7102,-1.7102,0,-1.6967,-1.6971,-1.6982,-1.6993,-1.7002,-1.7011,-1.7021,-1.7025,-1.7035,-1.7042,-1.7053,-1.706,-1.7073,-1.7083,-1.7093,-1.7098,-1.7101,-1.7102,-1.7104,-1.7102,-1.7098,-1.7099,-1.709,-1.7102,-1.7102,-1.7102,-1.7102,-1.7102,-1.6974,-1.6981,-1.6992,-1.7003,-1.7011,-1.7019,-1.7027,-1.7034,-1.7043,-1.7055,-1.7059,-1.7069,-1.7078,-1.7092,-1.7098,-1.7105,-1.7105,-1.7108,-1.7108,-1.7108,-1.7108,-1.7097,-1.7107,-1.7107,-1.7107,-1.7107,-1.7107,0,-1.6984,-1.6991,-1.7001,-1.7014,-1.7022,-1.7025,-1.7035,-1.7041,-1.7051,-1.7059,-1.7068,-1.7079,-1.7088,-1.7096,-1.7106,-1.711,-1.7111,-1.7112,-1.7112,-1.7113,-1.7108,-1.7105,-1.7111,-1.7111,-1.7111,-1.7111,-1.7111,-1.7111,-1.699,-1.7002,-1.7007,-1.7023,-1.7029,-1.704,-1.7046,-1.7053,-1.706,-1.7072,-1.708,-1.7086,-1.7094,-1.7103,-1.7111,-1.7113,-1.7116,-1.7117,-1.7119,-1.7114,-1.7113,-1.7113,-1.7111,-1.7117,-1.7117,-1.7123,-1.7123,-1.7123]}]]